Location: Unspecified
(0.0000°N, 0.0000°E)
Time: 18:25:46
(UTC+00:00)

Envisat - Pass Details

Date: 04 October 2021
Orbit: 764 x 766 km, 98.2° (Epoch: 22 October)

Event Time Altitude Azimuth Distance (km) Brightness Sun altitude
Rises 05:14:09 0° 357° (N) 3,212 6.1 -8.6°
Reaches altitude 10° 05:16:35 10° 348° (NNW) 2,289 5.3 -8.0°
Maximum altitude 05:21:12 37° 282° (WNW) 1,178 3.5 -6.9°
Drops below altitude 10° 05:25:50 10° 216° (SW) 2,299 5.2 -5.7°
Sets 05:28:18 0° 207° (SSW) 3,227 6.0 -5.1°
